DW1159 Weather Reports


time (UTC)temp
F
wind
direction
speed
knots
gust
knots
rain 1hr
in
rain 24hr
in
rain mn
in
humidity
%
barometer
mb
20260505092943 36 200 0.0 0.0 0.00 0.29 0.29 98 1013.9
20260505092441 36 205 0.0 0.0 0.00 0.29 0.29 98 1014.1
20260505091938 36 212 0.0 0.9 0.00 0.29 0.29 98 1014.0
20260505091435 36 294 0.9 1.7 0.00 0.29 0.29 98 1013.8
20260505090933 36 345 1.7 1.7 0.00 0.29 0.29 98 1014.1
20260505090431 36 201 0.0 0.0 0.00 0.29 0.29 98 1014.0
20260505085928 36 229 0.0 0.9 0.00 0.29 0.29 98 1014.2
20260505085426 36 217 0.0 0.0 0.00 0.29 0.29 98 1014.2
20260505084924 35 230 0.0 0.9 0.00 0.29 0.29 98 1014.2
20260505084422 35 191 0.9 0.9 0.00 0.29 0.29 98 1014.5
20260505083920 35 187 0.0 0.0 0.00 0.29 0.29 98 1014.7
20260505083417 35 193 0.0 0.9 0.05 0.29 0.29 98 1015.2
20260505082913 35 163 0.9 0.9 0.12 0.29 0.29 98 1015.2
20260505082409 35 178 0.9 1.7 0.12 0.28 0.28 98 1015.6
20260505081906 35 195 0.0 0.9 0.12 0.28 0.28 98 1015.7
20260505081403 35 196 0.9 1.7 0.07 0.26 0.26 98 1015.7
20260505080859 35 201 0.0 0.0 0.07 0.26 0.26 98 1015.6
20260505080355 35 206 0.0 0.0 0.05 0.25 0.25 98 1015.9
20260505075851 35 223 0.0 0.9 0.12 0.25 0.25 98 1015.7
20260505075348 35 201 0.9 1.7 0.12 0.24 0.24 97 1015.9
20260505074845 35 189 0.0 0.0 0.12 0.23 0.23 97 1016.1
20260505074342 35 106 0.9 0.9 0.14 0.22 0.22 97 1015.9
20260505073840 35 185 0.0 0.0 0.12 0.21 0.21 97 1016.1
20260505073338 35 202 0.0 0.0 0.17 0.20 0.20 97 1016.1
20260505072834 35 184 0.9 1.7 0.19 0.19 0.19 97 1016.0
20260505072330 36 232 0.9 1.7 0.12 0.17 0.17 97 1016.0
20260505071826 36 198 0.9 0.9 0.12 0.16 0.16 96 1015.9
20260505071323 36 200 0.0 0.0 0.07 0.15 0.15 96 1016.0
20260505070821 37 186 1.7 1.7 0.05 0.14 0.14 96 1016.1
20260505070318 37 198 2.6 2.6 0.12 0.14 0.14 96 1016.0
20260505065813 37 182 0.9 1.7 0.19 0.13 0.13 96 1016.4
20260505065310 37 152 1.7 1.7 0.12 0.11 0.11 95 1016.1
20260505064807 37 116 1.7 2.6 0.12 0.10 0.10 95 1016.1
20260505064304 37 229 0.0 0.9 0.24 0.10 0.10 96 1016.2
20260505063802 38 195 2.6 2.6 0.12 0.08 0.08 96 1016.2
20260505063258 39 170 2.6 2.6 0.07 0.06 0.06 96 1016.5
20260505062754 39 215 0.0 0.0 0.12 0.06 0.06 96 1016.1
20260505062252 39 175 0.9 0.9 0.12 0.05 0.05 96 1016.1
20260505061749 39 186 0.0 0.0 0.12 0.04 0.04 96 1016.4
20260505061247 38 188 0.0 0.0 0.17 0.03 0.03 95 1016.0
20260505060744 39 188 0.0 0.0 0.19 0.02 0.02 95 1016.2
20260505060241 39 206 0.9 0.9 0.17 0.01 0.01 95 1016.2
20260505055736 39 187 0.9 0.9 0.17 0.49 0.49 95 1016.5
20260505055233 39 209 0.0 0.0 0.31 0.47 0.47 95 1016.1
20260505054730 39 223 0.9 1.7 0.38 0.46 0.46 95 1016.1
20260505054228 40 177 0.0 0.0 0.31 0.43 0.43 96 1016.0
20260505053726 40 157 0.9 0.9 0.17 0.40 0.40 96 1016.1
20260505053222 41 107 0.0 0.9 0.12 0.38 0.38 96 1016.4
20260505052719 41 187 0.0 0.0 0.12 0.37 0.37 96 1016.2
20260505052216 41 188 0.0 0.0 0.17 0.36 0.36 96 1016.4
20260505051713 41 161 0.0 0.0 0.12 0.35 0.35 95 1016.0
20260505051206 41 177 0.0 0.0 0.05 0.34 0.34 95 1016.1
20260505050703 41 151 2.6 2.6 0.07 0.33 0.33 95 1016.1
20260505050201 41 174 2.6 2.6 0.00 0.32 0.32 95 1016.1
20260505041631 41 175 1.7 2.6 0.00 0.30 0.30 94 1016.0
20260505041128 41 195 0.9 0.9 0.07 0.30 0.30 94 1016.1
20260505040625 41 192 1.7 1.7 0.07 0.30 0.30 93 1016.1
20260505040122 41 201 0.9 1.7 0.05 0.29 0.29 92 1016.1
20260505035619 41 186 0.0 0.9 0.05 0.29 0.29 92 1016.1
20260505035115 41 237 0.9 0.9 0.00 0.28 0.28 91 1015.9
20260505034612 41 230 2.6 2.6 0.00 0.28 0.28 90 1015.6
20260505034109 41 204 2.6 2.6 0.00 0.28 0.28 89 1016.1
20260505033605 41 184 3.5 5.2 0.00 0.28 0.28 89 1015.9
20260505033104 41 174 1.7 1.7 0.00 0.28 0.28 90 1015.7
20260505032601 41 174 1.7 1.7 0.00 0.28 0.28 90 1015.5
20260505032057 41 238 4.3 5.2 0.00 0.28 0.28 91 1015.5
20260505031555 41 258 0.9 0.9 0.00 0.28 0.28 91 1015.4
20260505031051 41 164 4.3 5.2 0.07 0.28 0.28 91 1015.5
20260505030548 41 231 1.7 2.6 0.07 0.28 0.28 92 1015.0
20260505030044 41 206 3.5 5.2 0.05 0.27 0.27 92 1015.2
20260505025540 41 191 0.9 0.9 0.05 0.27 0.27 93 1015.1
20260505025039 41 236 0.0 0.9 0.07 0.26 0.26 93 1015.4
20260505024536 41 163 0.0 0.0 0.07 0.26 0.26 93 1015.1
20260505024033 42 189 2.6 4.3 0.12 0.25 0.25 94 1015.1
20260505023530 42 194 0.0 0.9 0.17 0.25 0.25 95 1015.4
20260505023028 42 236 0.9 0.9 0.12 0.24 0.24 94 1015.1
20260505022525 42 178 0.0 0.9 0.05 0.23 0.23 94 1015.0
20260505022022 42 178 0.0 0.0 0.07 0.22 0.22 94 1015.1
20260505021518 42 229 0.9 1.7 0.07 0.22 0.22 93 1014.9
20260505021015 42 263 2.6 2.6 0.00 0.21 0.21 93 1014.7
20260505020514 42 220 2.6 2.6 0.00 0.21 0.21 94 1014.6
20260505020012 42 225 2.6 4.3 0.07 0.21 0.21 93 1014.6
20260505015509 42 268 0.9 0.9 0.12 0.21 0.21 92 1014.6
20260505015006 43 220 0.9 0.9 0.17 0.20 0.20 92 1014.7
20260505014503 43 272 2.6 2.6 0.19 0.19 0.19 90 1014.4
20260505014000 43 343 6.1 7.0 0.07 0.17 0.17 90 1014.6
20260505013457 43 316 2.6 2.6 0.05 0.16 0.16 89 1014.6
20260505012954 44 22 4.3 6.1 0.12 0.16 0.16 86 1014.4
20260505012452 44 310 4.3 6.1 0.31 0.15 0.15 86 1014.6
20260505011949 43 321 2.6 2.6 0.28 0.14 0.14 90 1014.5
20260505011445 44 241 0.9 1.7 0.12 0.11 0.11 89 1014.5
20260505010942 44 252 3.5 5.2 0.07 0.09 0.09 88 1014.0
20260505010437 45 260 1.7 1.7 0.38 0.09 0.09 86 1013.9
20260505005934 46 229 1.7 1.7 0.31 0.08 0.08 83 1013.6
20260505005431 50 352 4.3 6.1 0.00 0.03 0.03 72 1013.6
20260505004928 49 300 3.5 5.2 0.00 0.03 0.03 64 1013.5
20260505004425 52 299 6.1 7.0 0.00 0.03 0.03 61 1013.1
20260505003922 52 149 1.7 1.7 0.00 0.03 0.03 58 1012.8
20260505003419 53 227 3.5 4.3 0.00 0.03 0.03 57 1012.8
20260505002915 53 143 3.5 5.2 0.00 0.03 0.03 57 1012.6
20260505002412 53 121 4.3 5.2 0.00 0.03 0.03 58 1012.6
20260505001910 53 169 2.6 2.6 0.00 0.03 0.03 61 1012.8
20260505001407 53 148 4.3 6.1 0.00 0.03 0.03 60 1012.5
20260505000904 53 160 4.3 5.2 0.00 0.03 0.03 60 1012.8
20260505000402 53 106 3.5 6.1 0.00 0.03 0.03 60 1012.6
20260504235858 53 133 5.2 6.1 0.00 0.03 0.03 60 1012.6
20260504235355 54 114 5.2 6.1 0.00 0.03 0.03 59 1012.8
20260504234852 54 119 5.2 7.0 0.00 0.03 0.03 59 1013.1
20260504234350 54 148 6.1 8.7 0.00 0.03 0.03 58 1013.0
20260504233846 53 136 5.2 8.7 0.00 0.03 0.03 61 1013.1
20260504233341 53 182 4.3 6.1 0.00 0.03 0.03 61 1013.1
20260504232838 53 117 3.5 5.2 0.00 0.03 0.03 62 1013.3
20260504232336 53 152 3.5 4.3 0.00 0.03 0.03 63 1013.3
20260504231832 53 125 6.1 9.6 0.00 0.03 0.03 62 1013.3
20260504231329 53 150 5.2 7.0 0.00 0.03 0.03 63 1013.1
20260504230825 53 134 7.8 9.6 0.00 0.03 0.03 63 1013.3
20260504230323 53 161 7.0 7.0 0.00 0.03 0.03 64 1013.4
20260504225822 53 120 4.3 5.2 0.00 0.03 0.03 63 1013.4
20260504225317 54 129 6.1 7.0 0.00 0.03 0.03 64 1013.5
20260504224815 53 116 6.1 8.7 0.00 0.03 0.03 63 1013.5
20260504224312 53 142 4.3 5.2 0.00 0.03 0.03 65 1013.6
20260504223809 52 220 4.3 6.1 0.00 0.03 0.03 65 1013.8
20260504223304 52 120 4.3 6.1 0.00 0.03 0.03 68 1014.0
20260504222801 52 153 2.6 4.3 0.00 0.03 0.03 68 1014.0
20260504222258 50 186 6.1 7.8 0.00 0.03 0.03 72 1014.1
20260504221756 50 160 2.6 2.6 0.00 0.03 0.03 76 1014.1
20260504221253 50 108 4.3 5.2 0.00 0.03 0.03 74 1014.4
20260504220749 49 141 5.2 7.0 0.00 0.03 0.03 76 1014.1
20260504220246 49 151 4.3 5.2 0.00 0.03 0.03 79 1014.5
20260504215744 49 134 3.5 4.3 0.00 0.03 0.03 80 1014.4
20260504215240 50 137 2.6 2.6 0.00 0.03 0.03 83 1014.7
20260504214736 48 161 4.3 5.2 0.00 0.03 0.03 81 1015.1
20260504214233 47 114 3.5 4.3 0.00 0.03 0.03 83 1014.9
20260504213729 48 164 4.3 6.1 0.00 0.03 0.03 84 1015.2
20260504213226 47 192 0.0 0.9 0.05 0.03 0.03 82 1015.1
20260504212723 47 222 0.9 1.7 0.12 0.03 0.03 82 1015.1
20260504212219 48 216 2.6 4.3 0.12 0.02 0.02 83 1015.4
20260504211717 48 317 2.6 2.6 0.05 0.01 0.01 78 1015.4
20260504211213 50 315 6.1 7.0 0.00 0.00 0.00 73 1015.5
20260504210711 52 31 3.5 4.3 0.00 0.00 0.00 63 1014.9
20260504210208 52 346 0.9 0.9 0.00 0.00 0.00 61 1015.1
20260504205705 52 133 3.5 4.3 0.00 0.00 0.00 60 1015.0
20260504205202 52 124 0.9 0.9 0.00 0.00 0.00 60 1014.6
20260504204700 52 146 0.9 1.7 0.00 0.00 0.00 61 1014.6
20260504204159 53 63 4.3 7.0 0.00 0.00 0.00 59 1014.9
20260504203657 54 195 4.3 5.2 0.00 0.00 0.00 59 1015.0
20260504203155 53 27 0.9 0.9 0.00 0.00 0.00 67 1014.9
20260504202654 52 185 0.9 0.9 0.00 0.00 0.00 63 1015.1
20260504202152 52 194 0.9 0.9 0.00 0.00 0.00 62 1015.4
20260504201649 51 170 1.7 1.7 0.00 0.00 0.00 64 1015.6
20260504201146 51 147 2.6 2.6 0.00 0.00 0.00 73 1015.6
20260504200643 50 115 0.9 1.7 0.00 0.00 0.00 70 1015.7
20260504200140 51 58 1.7 1.7 0.00 0.00 0.00 68 1015.7
20260504195636 50 114 0.9 1.7 0.00 0.00 0.00 69 1015.9
20260504195132 48 172 0.0 0.0 0.00 0.00 0.00 71 1015.9
20260504194629 48 10 3.5 4.3 0.00 0.00 0.00 75 1016.2
20260504194125 48 252 1.7 1.7 0.00 0.00 0.00 75 1016.4
20260504193621 48 298 0.9 1.7 0.00 0.00 0.00 74 1016.4
20260504193120 48 311 0.9 1.7 0.00 0.00 0.00 71 1016.4
20260504192617 50 315 3.5 6.1 0.00 0.00 0.00 62 1016.1
20260504192115 51 325 1.7 2.6 0.00 0.00 0.00 56 1015.5
20260504191614 52 40 5.2 8.7 0.00 0.00 0.00 54 1015.5
20260504191109 51 177 2.6 4.3 0.00 0.00 0.00 56 1015.4
20260504190606 51 223 0.9 1.7 0.00 0.00 0.00 57 1015.4
20260504185559 54 50 6.1 8.7 0.00 0.00 0.00 51 1015.2
20260504185055 57 159 1.7 2.6 0.00 0.00 0.00 42 1015.1
20260504184551 57 150 6.1 7.0 0.00 0.00 0.00 39 1014.7
20260504184046 57 134 0.9 0.9 0.00 0.00 0.00 39 1014.7
20260504183544 59 131 3.5 5.2 0.00 0.00 0.00 39 1014.4
20260504183042 58 107 3.5 4.3 0.00 0.00 0.00 41 1014.6
20260504182539 58 174 1.7 4.3 0.00 0.00 0.00 42 1014.9
20260504182036 57 144 2.6 4.3 0.00 0.00 0.00 41 1015.1
20260504181533 58 158 2.6 5.2 0.00 0.00 0.00 41 1015.4
20260504181031 56 149 1.7 2.6 0.00 0.00 0.00 45 1015.2
20260504180530 55 141 0.9 1.7 0.00 0.00 0.00 43 1015.6
20260504180028 56 173 4.3 4.3 0.00 0.00 0.00 43 1015.6
20260504175525 55 87 1.7 1.7 0.00 0.00 0.00 46 1016.1
20260504175022 54 76 1.7 2.6 0.00 0.00 0.00 48 1016.1
20260504174520 54 87 2.6 4.3 0.00 0.00 0.00 51 1016.1
20260504174016 53 171 5.2 7.0 0.00 0.00 0.00 52 1016.2
20260504173513 53 90 5.2 7.0 0.00 0.00 0.00 53 1016.4
20260504173011 52 192 2.6 2.6 0.00 0.00 0.00 56 1016.7
20260504172507 51 137 6.1 7.0 0.00 0.00 0.00 57 1016.6
20260504172003 51 150 4.3 7.0 0.00 0.00 0.00 57 1017.1
20260504171500 51 134 4.3 7.0 0.00 0.00 0.00 60 1016.9
20260504170957 50 136 3.5 4.3 0.00 0.00 0.00 60 1017.0
20260504170453 49 143 3.5 5.2 0.00 0.00 0.00 63 1017.5
20260504160413 50 6 3.5 6.1 0.00 0.00 0.00 60 1017.8
20260504150837 45 53 1.7 1.7 0.00 0.00 0.00 55 1017.8
20260504150333 44 108 1.7 2.6 0.00 0.00 0.00 55 1018.0
20260504141304 39 185 0.0 0.0 0.00 0.00 0.00 67 1018.5
20260504140800 39 175 0.0 0.0 0.00 0.00 0.00 67 1018.6
20260504140256 39 165 0.0 0.0 0.00 0.00 0.00 69 1018.5
20260504130725 37 176 0.0 0.9 0.00 0.00 0.00 68 1017.7
20260504130220 36 171 0.0 0.0 0.00 0.00 0.00 69 1017.7
20260504120145 34 122 0.9 0.9 0.00 0.00 0.00 71 1017.1
20260504110612 34 165 0.0 0.0 0.00 0.00 0.00 74 1017.1
20260504110108 33 153 0.0 0.0 0.00 0.00 0.00 76 1017.0
20260504100534 34 236 0.9 0.9 0.00 0.00 0.00 68 1016.7